RH
11 10 11 11 12 12 14 13 14 23 20 22 23 26 30 33 38 40 39 41 48 55 61 50 44 51 64 71 72 80 72 66 64 70 72 71 65 70 74 72 72 79 84 84
12 12 11 11 12 13 14 15 18 20 21 20 21 24 28 28 33 35 34 37 48 52 53 44 44 48 60 68 71 77 70 67 70 73 66 65 73 70 63 66 67 69 73 75
13 12 12 12 14 14 14 14 18 19 19 21 22 20 23 26 25 26 31 38 45 50 51 48 45 48 59 63 69 72 72 72 75 69 63 71 66 57 57 71 77 75 73 73
15 13 13 14 15 16 17 17 17 16 16 15 19 16 19 19 23 27 30 35 44 53 51 51 50 46 51 62 67 64 68 68 65 62 64 58 54 53 51 63 78 78 76 76
16 14 14 16 15 17 19 18 18 17 17 17 18 18 17 20 23 25 30 35 39 45 46 46 49 50 53 60 60 53 54 57 59 63 61 53 48 45 52 65 76 78 78 78
16 15 16 16 17 18 18 18 19 19 18 17 17 18 16 17 20 24 27 30 34 42 45 47 49 48 52 57 56 52 54 57 60 62 56 48 46 43 45 49 64 73 76 75
18 16 16 16 17 17 18 19 22 19 19 18 20 22 19 18 22 23 26 29 34 39 44 49 53 51 53 55 53 52 53 58 62 57 47 47 46 44 45 44 49 58 71 78
18 15 16 15 15 15 18 20 21 22 19 18 23 22 19 24 26 25 26 30 35 41 45 48 55 54 56 56 52 51 56 59 55 49 46 51 48 44 42 40 45 52 58 78
20 19 17 18 17 15 17 20 21 24 26 22 20 22 21 26 29 30 29 33 38 43 45 51 59 58 57 56 50 50 56 55 54 48 51 53 48 45 43 42 39 50 55 72
19 20 18 17 18 18 20 22 25 25 29 27 24 26 24 25 29 30 29 35 42 44 48 57 59 60 61 57 51 51 53 56 51 50 52 56 51 47 45 48 40 41 59 71
19 19 18 19 20 21 22 22 26 26 29 26 26 24 25 26 24 26 32 36 44 46 52 60 59 66 66 63 57 57 54 52 50 53 56 57 55 50 48 51 50 39 53 62
21 22 22 19 19 20 22 24 28 27 33 32 30 25 24 25 24 29 32 39 44 50 55 61 62 68 69 71 65 54 46 51 52 55 58 56 58 53 49 50 51 48 46 57
23 24 22 22 21 23 22 23 27 31 32 35 31 27 28 26 27 28 32 36 44 52 55 60 63 71 75 71 56 50 52 53 53 56 57 58 64 57 48 47 48 51 53 53
24 27 24 19 23 25 28 27 28 31 32 34 30 30 28 27 27 33 41 40 45 50 52 54 65 73 76 62 61 54 52 54 55 60 60 63 70 62 52 46 47 50 59 54
26 28 27 24 23 23 26 31 32 35 36 33 31 31 30 28 28 34 39 39 46 51 53 57 55 48 47 56 56 53 53 55 55 64 64 68 71 67 60 50 48 50 57 54
30 31 30 27 27 24 27 29 31 34 34 34 35 34 34 34 34 35 38 42 48 54 56 59 54 48 47 56 57 56 56 54 56 64 70 74 75 71 68 61 52 49 53 60
32 32 34 31 32 30 28 28 32 33 33 33 38 36 38 38 36 37 43 43 51 54 59 59 57 53 56 58 57 55 57 56 57 64 68 74 79 78 73 67 62 51 55 56
35 37 34 32 38 36 28 29 30 33 36 37 38 37 36 37 43 41 43 48 52 54 57 57 59 54 60 68 66 66 67 68 64 57 61 67 74 79 75 71 65 59 54 62
27 36 40 37 34 33 33 37 38 38 39 42 40 38 39 37 36 46 43 46 54 55 56 54 58 60 64 67 72 77 71 71 68 64 67 68 69 76 81 78 68 65 57 61
27 30 33 41 33 32 31 38 42 43 39 41 40 37 35 35 33 39 49 48 49 53 55 58 59 62 62 67 74 76 75 70 67 62 58 59 65 73 67 76 69 63 62 65
34 36 32 37 39 36 35 39 42 41 36 44 42 38 39 35 39 46 48 55 53 52 56 60 64 69 68 69 73 70 67 57 50 48 50 55 59 61 60 63 67 69 68 67
34 35 34 39 41 42 43 46 43 44 48 47 43 38 43 45 46 54 60 66 60 60 61 66 73 77 74 75 71 69 57 51 45 43 46 49 55 57 60 66 67 73 74 75
38 35 34 34 34 41 47 45 44 46 46 44 40 40 42 44 52 58 63 68 67 65 71 70 65 77 78 73 70 56 56 50 46 46 47 50 57 57 67 62 79 85 86 82
48 48 47 44 45 43 46 48 47 45 46 43 42 41 43 45 49 58 68 70 71 71 71 68 58 68 70 68 65 57 52 50 50 50 53 58 66 72 69 75 80 75 80 91
52 53 50 46 43 46 48 49 50 51 53 51 48 47 48 47 46 53 62 64 61 62 63 61 59 57 64 69 67 56 53 54 55 59 63 67 68 71 74 78 84 88 90 95
64 61 56 51 52 48 45 52 58 60 62 64 62 58 55 56 54 51 50 52 53 54 55 62 64 65 67 68 69 59 58 59 63 65 67 71 74 75 78 86 89 90 89 89